This is the latest recevied weather packets stored in our database for station/object KY4OP-13. If no packets are shown the sender has not sent any weather packets the latest 10 day(s).
| Time | Temp. | Humidity | Pressure | Rain* | Wind** | Luminosity | Snow |
|---|---|---|---|---|---|---|---|
| 1777243511 | 11.67° C | 76% | 1022.3 hPa | 0 mm | - | - | - |
| 1777243206 | 11.67° C | 75% | 1022.5 hPa | 0 mm | - | - | - |
| 1777242902 | 11.67° C | 76% | 1022.4 hPa | 0 mm | - | - | - |
| 1777242601 | 11.67° C | 76% | 1022.5 hPa | 0 mm | - | - | - |
| 1777242295 | 11.67° C | 76% | 1022.5 hPa | 0 mm | - | - | - |
| 1777241994 | 11.67° C | 75% | 1022.4 hPa | 0 mm | - | - | - |
| 1777241690 | 11.67° C | 75% | 1022.2 hPa | 0 mm | - | - | - |
| 1777241387 | 11.67° C | 75% | 1022.1 hPa | 0 mm | - | - | - |
| 1777241085 | 11.67° C | 75% | 1022.2 hPa | 0 mm | - | - | - |
| 1777240783 | 11.67° C | 75% | 1022.3 hPa | 0 mm | - | - | - |
| 1777240481 | 11.67° C | 74% | 1022.4 hPa | 0 mm | - | - | - |
| 1777240177 | 11.67° C | 76% | 1022.2 hPa | 0 mm | - | - | - |
| 1777239875 | 11.67° C | 74% | 1022.3 hPa | 0 mm | - | - | - |
| 1777239573 | 11.67° C | 74% | 1022.2 hPa | 0 mm | - | - | - |
| 1777239268 | 11.67° C | 74% | 1022 hPa | 0 mm | - | - | - |
| 1777238966 | 11.67° C | 74% | 1022 hPa | 0 mm | - | - | - |
| 1777238663 | 11.67° C | 74% | 1021.9 hPa | 0 mm | - | - | - |
| 1777238359 | 12.22° C | 73% | 1022 hPa | 0 mm | - | - | - |
| 1777238056 | 12.22° C | 75% | 1021.9 hPa | 0 mm | - | - | - |
| 1777237753 | 12.22° C | 74% | 1021.7 hPa | 0 mm | - | - | - |
| 1777237450 | 12.22° C | 73% | 1021.7 hPa | 0 mm | - | - | - |
| 1777237147 | 12.22° C | 72% | 1021.6 hPa | 0 mm | - | - | - |
| 1777236845 | 12.22° C | 72% | 1021.7 hPa | 0 mm | - | - | - |
| 1777236544 | 12.22° C | 71% | 1021.5 hPa | 0 mm | - | - | - |
| 1777236242 | 12.78° C | 74% | 1021.5 hPa | 0 mm | - | - | - |
* Rain latest hour (hover to see other rain measurements)
** Current wind speed in m/s (hover to see current wind gust speed)